Weather History for Kendall, FL

Change the Weather History Date:

Monday, February 3, 2014

  Actual Average Record
Temperature  
Mean Temperature 78 °F -  
Max Temperature 84 °F 77 °F 84 °F (2002)
Min Temperature 73 °F 60 °F 48 °F (2009)
Cooling Degree Days 14    
Growing Degree Days 28 (Base 50)    
Moisture  
Dew Point 73 °F    
Average Humidity 88    
Maximum Humidity 100    
Minimum Humidity 67    
Precipitation  
Precipitation 0.00 in - - ()
Sea Level Pressure  
Sea Level Pressure 30.07 in    
Wind  
Wind Speed 9 mph (ESE)    
Max Wind Speed 14 mph    
Max Gust Speed 18 mph    
Visibility 10 miles    
Events      
Averages and records for this station are not official NWS values.
T = Trace of Precipitation, MM = Missing Value Source: NWS Daily Summary

Daily Weather History Graph

Daily Weather History Graph

Search for Another Location

Airport:

Trip Planner

Search our weather history database for the weather conditions in past years. The results will help you decide how hot, cold, wet, or windy it might be!

Date:

Astronomy

Feb. 03, 2014 Rise Set
Actual Time 7:04 AM EST 6:07 PM EST
Civil Twilight 6:40 AM EST 6:31 PM EST
Nautical Twilight 6:12 AM EST 6:58 PM EST
Astronomical Twilight 5:45 AM EST 7:25 PM EST
Moon 9:36 AM EST (2/3) 10:21 PM EST (2/3)
Length of Visible Light 11h 50m
Length of Day
11h 02m
Waxing Crescent, 19% of the Moon is Illuminated
Feb 3
Waxing Crescent
Feb 6
First Quarter
Feb 14
Full
Feb 22
Last Quarter
Mar 1
New

Hourly Weather History & Observations

Time (EST) Temp. Heat Index Dew Point Humidity Pressure Visibility Wind Dir Wind Speed Gust Speed Precip Events Conditions
12:05 AM 75.0 °F - 73.0 °F 94% 30.08 in 10.0 mi ESE 10.4 mph - N/A   Partly Cloudy
12:53 AM 75.0 °F - 73.0 °F 94% 30.06 in 10.0 mi ESE 10.4 mph - N/A   Clear
1:53 AM 75.0 °F - 73.0 °F 94% 30.05 in 10.0 mi SE 11.5 mph - N/A   Clear
2:53 AM 75.0 °F - 73.0 °F 94% 30.04 in 10.0 mi SE 8.1 mph - N/A   Partly Cloudy
3:53 AM 73.9 °F - 73.0 °F 97% 30.04 in 10.0 mi ESE 6.9 mph - N/A   Scattered Clouds
4:41 AM 73.9 °F - 73.0 °F 97% 30.04 in 10.0 mi SE 6.9 mph - N/A   Mostly Cloudy
4:53 AM 73.9 °F - 73.9 °F 100% 30.04 in 10.0 mi SE 6.9 mph - N/A   Mostly Cloudy
5:53 AM 75.0 °F - 73.0 °F 94% 30.05 in 10.0 mi SE 5.8 mph - N/A   Mostly Cloudy
6:53 AM 73.9 °F - 73.0 °F 97% 30.06 in 10.0 mi SE 4.6 mph - N/A   Partly Cloudy
7:53 AM 75.9 °F - 73.9 °F 94% 30.09 in 10.0 mi ESE 3.5 mph - N/A   Clear
8:53 AM 78.1 °F - 73.9 °F 87% 30.10 in 10.0 mi SE 10.4 mph - N/A   Scattered Clouds
9:00 AM 78.1 °F - 73.9 °F 87% 30.10 in 10.0 mi SE 9.2 mph - N/A   Overcast
9:53 AM 79.0 °F - 73.9 °F 84% 30.11 in 10.0 mi ESE 11.5 mph - N/A   Mostly Cloudy
10:22 AM 81.0 °F 86.2 °F 73.9 °F 79% 30.11 in 10.0 mi SE 10.4 mph - N/A   Mostly Cloudy
10:53 AM 82.9 °F 89.4 °F 73.9 °F 74% 30.11 in 10.0 mi SSE 9.2 mph - N/A   Mostly Cloudy
11:53 AM 82.9 °F 88.8 °F 73.0 °F 72% 30.10 in 10.0 mi SE 13.8 mph - N/A   Mostly Cloudy
12:53 PM 84.0 °F 90.2 °F 73.0 °F 69% 30.08 in 10.0 mi SE 9.2 mph - N/A   Mostly Cloudy
1:45 PM 84.0 °F 90.2 °F 73.0 °F 69% 30.05 in 10.0 mi SE 11.5 mph - N/A   Mostly Cloudy
1:53 PM 84.0 °F 89.6 °F 72.0 °F 67% 30.05 in 10.0 mi SE 12.7 mph - N/A   Mostly Cloudy
2:53 PM 82.9 °F 87.5 °F 71.1 °F 67% 30.03 in 10.0 mi SE 13.8 mph 18.4 mph N/A   Scattered Clouds
3:53 PM 82.0 °F 86.7 °F 72.0 °F 71% 30.03 in 10.0 mi SE 12.7 mph - N/A   Scattered Clouds
4:53 PM 80.1 °F 83.8 °F 72.0 °F 76% 30.04 in 10.0 mi SE 11.5 mph - N/A   Scattered Clouds
5:53 PM 78.1 °F - 73.0 °F 84% 30.06 in 10.0 mi SE 8.1 mph - N/A   Partly Cloudy
6:53 PM 75.0 °F - 73.0 °F 94% 30.07 in 10.0 mi East 4.6 mph - N/A   Mostly Cloudy
7:53 PM 75.0 °F - 73.0 °F 94% 30.08 in 10.0 mi ENE 4.6 mph - N/A   Scattered Clouds
8:03 PM 75.9 °F - 73.9 °F 94% 30.08 in 10.0 mi ENE 4.6 mph - N/A   Mostly Cloudy
8:48 PM 73.4 °F - 73.4 °F 100% 30.09 in 10.0 mi East 4.6 mph - N/A   Partly Cloudy
8:53 PM 73.0 °F - 73.0 °F 100% 30.09 in 10.0 mi East 4.6 mph - N/A   Partly Cloudy
9:53 PM 73.0 °F - 73.0 °F 100% 30.09 in 10.0 mi East 5.8 mph - N/A   Scattered Clouds
10:53 PM 73.9 °F - 73.9 °F 100% 30.10 in 10.0 mi East 5.8 mph - N/A   Overcast
11:53 PM 73.9 °F - 73.9 °F 100% 30.09 in 10.0 mi East 5.8 mph - N/A   Overcast